Weather History for KDUJ - October, 2011

Change the Weather History Date:

Saturday, October 22, 2011

  Actual Average Record
Temperature  
Mean Temperature 45 °F 47 °F  
Max Temperature 52 °F 57 °F 77 °F (1979)
Min Temperature 37 °F 38 °F 25 °F (1969)
Degree Days  
Heating Degree Days 20 18  
Month to date heating degree days 138 323  
Since 1 July heating degree days 138 569  
Cooling Degree Days 0 0  
Month to date cooling degree days 0 0  
Year to date cooling degree days 0 360  
Moisture  
Dew Point 38 °F    
Average Humidity 75    
Maximum Humidity 96    
Minimum Humidity 54    
Precipitation  
Precipitation 0.00 in 0.10 in 0.87 in (1965)
Month to date precipitation 1.66 2.21  
Sea Level Pressure  
Sea Level Pressure 30.09 in    
Wind  
Wind Speed 5 mph (West)    
Max Wind Speed 12 mph    
Max Gust Speed 16 mph    
Visibility 10 miles    
Events      
T = Trace of Precipitation, MM = Missing Value Source: NWS Daily Summary

Daily Weather History Graph

Daily Weather History Graph

Search for Another Location

Airport or City:

Trip Planner

Search our weather history database for the weather conditions in past years. The results will help you decide how hot, cold, wet, or windy it might be!

Date:

Astronomy

Oct. 22, 2011 Rise Set
Actual Time 7:34 AM EDT 6:24 PM EDT
Civil Twilight 7:06 AM EDT 6:52 PM EDT
Nautical Twilight 6:34 AM EDT 7:24 PM EDT
Astronomical Twilight 6:02 AM EDT 7:56 PM EDT
Moon 2:27 AM EDT (10/22) 3:44 PM EDT (10/22)
Length of Visible Light 11h 46m
Length of Day
10h 50m
Waning Crescent, 24% of the Moon is Illuminated
Oct 22
Waning Crescent
Oct 26
New
Nov 2
First Quarter
Nov 10
Full
Nov 18
Last Quarter

Hourly Weather History & Observations

Time (EDT) Temp. Windchill Dew Point Humidity Pressure Visibility Wind Dir Wind Speed Gust Speed Precip Events Conditions
12:56 AM 42.1 °F 36.1 °F 39.9 °F 92% 30.08 in 10.0 mi WSW 10.4 mph 17.3 mph N/A   Overcast
1:56 AM 42.1 °F 37.1 °F 41.0 °F 96% 30.08 in 10.0 mi West 8.1 mph - N/A   Overcast
2:56 AM 42.1 °F 37.1 °F 41.0 °F 96% 30.08 in 10.0 mi WSW 8.1 mph - N/A   Overcast
3:56 AM 42.1 °F 37.1 °F 39.9 °F 92% 30.07 in 10.0 mi West 8.1 mph - N/A   Overcast
4:56 AM 42.1 °F 38.4 °F 41.0 °F 96% 30.08 in 10.0 mi WSW 5.8 mph - N/A   Overcast
5:56 AM 42.1 °F 38.4 °F 41.0 °F 96% 30.09 in 8.0 mi West 5.8 mph - N/A   Overcast
6:38 AM 42.8 °F 40.1 °F 39.2 °F 87% 30.06 in 8.0 mi WSW 4.6 mph - N/A   Overcast
6:56 AM 42.1 °F 38.4 °F 39.9 °F 92% 30.09 in 8.0 mi WSW 5.8 mph - N/A   Overcast
7:05 AM 42.8 °F 38.6 °F 39.2 °F 87% 30.06 in 8.0 mi SW 6.9 mph - N/A   Overcast
7:12 AM 42.8 °F 38.6 °F 39.2 °F 87% 30.06 in 8.0 mi SW 6.9 mph - N/A   Overcast
7:56 AM 42.8 °F 39.3 °F 39.2 °F 87% 30.07 in 8.0 mi WSW 5.8 mph - N/A   Overcast
8:56 AM 43.0 °F 39.5 °F 39.9 °F 89% 30.12 in 10.0 mi WSW 5.8 mph - N/A   Overcast
9:56 AM 43.0 °F 38.2 °F 39.9 °F 89% 30.12 in 10.0 mi WSW 8.1 mph - N/A   Overcast
10:56 AM 43.0 °F 38.8 °F 39.0 °F 86% 30.12 in 10.0 mi West 6.9 mph - N/A   Overcast
11:56 AM 44.6 °F 40.7 °F 39.2 °F 81% 30.09 in 10.0 mi WSW 6.9 mph - N/A   Overcast
12:56 PM 45.0 °F 40.6 °F 36.0 °F 71% 30.10 in 10.0 mi WSW 8.1 mph - N/A   Overcast
1:56 PM 48.9 °F - 37.0 °F 64% 30.09 in 10.0 mi West 8.1 mph - N/A   Overcast
2:56 PM 48.0 °F - 35.1 °F 61% 30.09 in 10.0 mi Variable 4.6 mph - N/A   Mostly Cloudy
3:56 PM 51.1 °F - 36.0 °F 56% 30.07 in 10.0 mi NNW 4.6 mph - N/A   Overcast
4:56 PM 51.1 °F - 36.0 °F 56% 30.06 in 10.0 mi WSW 8.1 mph - N/A   Scattered Clouds
5:56 PM 48.9 °F - 34.0 °F 56% 30.07 in 10.0 mi West 5.8 mph - N/A   Partly Cloudy
6:56 PM 44.6 °F - 33.8 °F 66% 30.07 in 10.0 mi Calm Calm - N/A   Scattered Clouds
7:56 PM 44.1 °F - 34.0 °F 68% 30.10 in 10.0 mi Calm Calm - N/A   Clear
8:56 PM 43.0 °F - 34.0 °F 71% 30.11 in 10.0 mi Calm Calm - N/A   Clear
9:56 PM 42.1 °F 39.2 °F 34.0 °F 73% 30.12 in 10.0 mi NNW 4.6 mph - N/A   Clear
10:56 PM 39.9 °F 36.7 °F 35.1 °F 83% 30.12 in 10.0 mi North 4.6 mph - N/A   Clear
11:56 PM 39.9 °F 37.8 °F 35.1 °F 83% 30.12 in 10.0 mi ENE 3.5 mph - N/A   Clear